Lapse_Rate
6.6 6.5 6.4 6.5 6.5 6.5 6.4 6.4 6.4 6.5 6.5 6.6 6.6 6.7 6.6 6.6 6.8 6.8 6.8 6.7 6.6 6.5
6.3 6.4 6.6 6.5 6.5 6.3 6.3 6.3 6.4 6.5 6.6 6.6 6.6 6.6 6.7 6.8 6.8 6.8 6.8 6.7 6.6 6.5
6.5 6.6 6.5 6.4 6.3 6.3 6.3 6.4 6.5 6.6 6.6 6.7 6.7 6.7 6.8 6.9 6.8 6.8 6.7 6.7 6.7 6.5
6.6 6.5 6.4 6.4 6.3 6.4 6.4 6.5 6.6 6.7 6.8 6.8 6.8 6.8 6.9 6.8 6.8 6.7 6.7 6.7 6.5 6.4
6.5 6.4 6.4 6.3 6.3 6.4 6.4 6.4 6.6 6.7 6.8 6.9 6.9 7.0 6.9 6.8 6.8 6.7 6.7 6.7 6.5 6.5
6.4 6.4 6.3 6.3 6.3 6.4 6.4 6.5 6.7 6.9 7.0 7.0 7.0 7.0 6.9 6.8 6.8 6.8 6.8 6.6 6.6 6.7
6.4 6.3 6.3 6.3 6.4 6.4 6.5 6.7 6.9 6.9 7.0 7.0 7.0 6.9 6.8 6.8 6.7 6.6 6.6 6.6 6.6 6.7
6.4 6.4 6.4 6.4 6.5 6.6 6.7 6.8 6.9 6.9 6.9 6.8 6.8 6.9 6.8 6.7 6.7 6.6 6.5 6.5 6.5 6.5
6.5 6.5 6.5 6.5 6.6 6.7 6.8 6.8 6.8 6.9 6.9 6.9 6.9 6.9 6.8 6.7 6.6 6.6 6.6 6.6 6.5 6.4
6.5 6.5 6.5 6.6 6.7 6.8 6.8 6.8 6.9 6.9 6.9 6.9 6.8 6.9 6.8 6.6 6.5 6.5 6.5 6.5 6.4 6.3
6.6 6.6 6.6 6.6 6.7 6.7 6.7 6.8 6.9 6.9 6.9 6.9 6.8 6.8 6.6 6.6 6.4 6.3 6.3 6.3 6.2 6.2
6.6 6.6 6.6 6.6 6.6 6.6 6.7 6.8 6.8 6.8 6.8 6.8 6.7 6.6 6.5 6.5 6.3 6.1 6.0 6.0 6.1 6.0
6.7 6.6 6.6 6.5 6.6 6.7 6.7 6.8 6.7 6.7 6.7 6.6 6.6 6.4 6.4 6.3 6.2 6.0 5.9 5.9 6.0 5.8
6.7 6.6 6.6 6.6 6.6 6.7 6.7 6.7 6.7 6.6 6.6 6.5 6.5 6.4 6.3 6.2 6.1 6.0 5.8 5.9 6.0 5.8
Wind_Speed
6 4 4 4 4 3 3 2 6 10 13 13 14 14 12 8 6 7 5 7 5 2
5 6 5 5 4 3 4 4 8 9 10 11 12 11 11 5 6 5 4 5 4 3
6 6 5 5 5 5 5 5 7 8 8 8 10 11 11 5 7 5 4 4 6 4
6 6 5 5 4 4 5 6 5 5 6 6 6 9 7 5 5 6 5 5 6 6
6 5 5 5 4 5 4 5 5 5 5 5 5 7 5 5 5 5 6 6 6 6
6 6 6 5 4 5 5 4 4 5 4 4 5 5 7 6 5 5 5 5 6 7
7 6 6 6 4 5 4 4 3 4 6 6 6 6 6 5 5 4 5 5 5 5
7 6 6 6 5 5 4 4 4 4 5 6 5 4 4 4 4 5 5 4 5 8
7 7 6 6 6 5 4 3 3 3 4 4 3 5 5 4 4 5 5 6 6 7
8 7 7 6 6 6 5 3 3 3 4 4 3 3 3 4 4 4 5 6 7 7
9 8 7 7 6 5 3 4 3 3 4 4 2 1 1 3 5 4 4 6 6 7
11 9 8 7 7 4 4 3 3 3 4 3 2 3 2 2 4 4 5 6 8 9
11 10 9 7 7 4 3 4 4 4 3 4 2 2 3 2 2 4 5 5 7 11
11 11 9 7 5 5 5 5 5 4 2 2 2 2 4 4 2 3 4 5 6 7
Wind_Direction
131 131 120 114 109 95 98 88 82 84 78 66 59 53 51 47 42 39 40 34 26 17
132 120 124 117 110 122 102 99 88 91 86 70 60 53 50 44 34 33 28 23 16 21
136 123 122 123 118 105 109 101 94 91 101 79 61 49 48 36 24 34 18 18 14 15
131 133 133 128 128 137 120 113 102 108 120 90 63 48 46 36 30 33 19 8 10 358
139 145 144 147 150 148 130 117 124 113 115 97 79 56 49 40 30 29 16 359 357 352
155 162 161 158 164 151 132 124 118 109 121 116 84 58 44 41 27 13 1 352 355 343
169 172 172 172 163 151 149 138 134 118 125 109 88 61 44 34 18 360 359 354 346 335
172 172 167 165 161 157 161 166 148 120 110 112 98 68 51 30 10 0 356 345 337 342
167 167 171 168 170 171 176 161 125 116 130 139 119 80 63 60 12 2 355 348 337 325
171 170 175 172 172 180 177 150 137 134 143 160 152 93 67 52 22 2 350 345 337 333
173 175 172 170 178 174 159 166 154 169 166 153 189 132 26 25 13 354 341 331 325 325
177 174 170 178 177 172 157 161 169 157 155 173 234 262 275 357 360 340 332 320 316 327
176 175 177 175 174 170 161 167 148 150 162 186 212 231 318 342 355 337 338 329 311 315
176 177 175 164 158 161 156 146 156 163 170 194 222 264 331 334 343 335 332 327 328 329